Weather History for KFFC - September, 2013

Change the Weather History Date:

Saturday, September 21, 2013

  Actual Average Record
Temperature  
Mean Temperature 69 °F 70 °F  
Max Temperature 73 °F 82 °F 95 °F (2010)
Min Temperature 65 °F 59 °F 43 °F (2006)
Degree Days  
Heating Degree Days 0 1  
Month to date heating degree days 0 2  
Since 1 July heating degree days 0 2  
Cooling Degree Days 4 6  
Month to date cooling degree days 215 187  
Year to date cooling degree days 1477 1567  
Growing Degree Days 20 (Base 50)    
Moisture  
Dew Point 68 °F    
Average Humidity 94    
Maximum Humidity 100    
Minimum Humidity 87    
Precipitation  
Precipitation 1.49 in 0.14 in 1.61 in (2002)
Month to date precipitation 2.03 2.59  
Year to date precipitation 27.90 37.32  
Snow  
Snow 0.00 in - - ()
Month to date snowfall 0.0  
Since 1 July snowfall 0.0  
Since 1 September snowfall 0.0  
Snow Depth 0.00 in    
Sea Level Pressure  
Sea Level Pressure 29.80 in    
Wind  
Wind Speed 4 mph (West)    
Max Wind Speed 12 mph    
Max Gust Speed 16 mph    
Visibility 7 miles    
Events Fog , Rain    
T = Trace of Precipitation, MM = Missing Value Source: NWS Daily Summary

Daily Weather History Graph

Daily Weather History Graph

Search for Another Location

Airport or City:

Trip Planner

Search our weather history database for the weather conditions in past years. The results will help you decide how hot, cold, wet, or windy it might be!

Date:

Astronomy

Sep. 21, 2013 Rise Set
Actual Time 7:25 AM EDT 7:36 PM EDT
Civil Twilight 7:01 AM EDT 8:00 PM EDT
Nautical Twilight 6:32 AM EDT 8:29 PM EDT
Astronomical Twilight 6:02 AM EDT 8:58 PM EDT
Moon 8:56 PM EDT (9/21) 9:34 AM EDT (9/21)
Length of Visible Light 12h 59m
Length of Day
12h 10m
Waning Gibbous, 94% of the Moon is Illuminated
Sep 21
Waning Gibbous
Sep 26
Last Quarter
Oct 4
New
Oct 11
First Quarter
Oct 18
Full

Hourly Weather History & Observations

Time (EDT) Temp. Dew Point Humidity Pressure Visibility Wind Dir Wind Speed Gust Speed Precip Events Conditions
12:53 AM 68.0 °F 64.9 °F 90% 29.94 in 10.0 mi Calm Calm - N/A   Clear
1:53 AM 66.0 °F 64.9 °F 96% 29.91 in 9.0 mi SE 3.5 mph - N/A   Clear
2:53 AM 66.0 °F 64.0 °F 93% 29.90 in 9.0 mi Calm Calm - N/A   Clear
3:53 AM 66.0 °F 64.0 °F 93% 29.88 in 9.0 mi Calm Calm - N/A   Clear
4:53 AM 66.9 °F 64.9 °F 93% 29.86 in 10.0 mi SE 4.6 mph - N/A   Clear
5:53 AM 66.9 °F 64.9 °F 93% 29.86 in 10.0 mi ESE 4.6 mph - N/A   Clear
6:53 AM 66.9 °F 64.9 °F 93% 29.86 in 10.0 mi Calm Calm - N/A   Partly Cloudy
7:53 AM 68.0 °F 66.0 °F 93% 29.86 in 10.0 mi Calm Calm - N/A   Partly Cloudy
8:53 AM 69.1 °F 66.9 °F 93% 29.86 in 10.0 mi SE 3.5 mph - N/A   Clear
9:08 AM 69.8 °F 66.2 °F 88% 29.87 in 10.0 mi SE 5.8 mph - N/A   Scattered Clouds
9:24 AM 69.8 °F 66.2 °F 88% 29.87 in 10.0 mi SSE 3.5 mph - N/A   Mostly Cloudy
9:53 AM 71.1 °F 68.0 °F 90% 29.86 in 10.0 mi SSE 3.5 mph - N/A   Scattered Clouds
10:53 AM 72.0 °F 68.0 °F 87% 29.86 in 10.0 mi South 5.8 mph - 0.00 in Rain Light Rain
11:53 AM 73.0 °F 69.1 °F 87% 29.83 in 10.0 mi SSE 4.6 mph - 0.01 in   Overcast
12:53 PM 73.0 °F 70.0 °F 90% 29.81 in 10.0 mi SSE 8.1 mph - 0.00 in Rain Light Rain
1:17 PM 73.4 °F 71.6 °F 94% 29.82 in 9.0 mi South 4.6 mph - 0.00 in Rain Light Rain
1:53 PM 73.0 °F 71.1 °F 93% 29.78 in 2.5 mi South 4.6 mph - 0.06 in Rain Rain
2:22 PM 73.4 °F 71.6 °F 94% 29.79 in 1.0 mi Calm Calm - 0.12 in Rain Heavy Rain
2:25 PM 73.4 °F 71.6 °F 94% 29.79 in 0.8 mi Calm Calm - 0.14 in Rain Heavy Rain
2:31 PM 71.6 °F 71.6 °F 100% 29.79 in 0.5 mi Calm Calm - 0.22 in Fog , Rain Heavy Rain
2:53 PM 72.0 °F 72.0 °F 100% 29.78 in 0.2 mi WSW 4.6 mph - 0.54 in Fog , Rain Heavy Rain
3:12 PM 71.6 °F 71.6 °F 100% 29.78 in 0.2 mi West 9.2 mph 16.1 mph 0.57 in Fog , Rain Heavy Rain
3:19 PM 71.6 °F 71.6 °F 100% 29.78 in 0.8 mi WSW 8.1 mph - 0.63 in Rain Heavy Rain
3:27 PM 71.6 °F 71.6 °F 100% 29.78 in 1.5 mi WSW 8.1 mph - 0.65 in Rain Rain
3:33 PM 71.6 °F 71.6 °F 100% 29.78 in 3.0 mi WSW 4.6 mph - 0.66 in Rain Rain
3:45 PM 73.4 °F 71.6 °F 94% 29.77 in 5.0 mi WSW 5.8 mph - 0.67 in Rain Light Rain
3:53 PM 73.0 °F 71.1 °F 93% 29.76 in 5.0 mi WSW 4.6 mph - 0.68 in Rain Light Rain
4:00 PM 73.4 °F 71.6 °F 94% 29.77 in 4.0 mi SW 3.5 mph - 0.01 in Rain Light Rain
4:08 PM 73.4 °F 71.6 °F 94% 29.77 in 3.0 mi Variable 4.6 mph - 0.02 in Rain Light Rain
4:17 PM 73.4 °F 71.6 °F 94% 29.77 in 2.5 mi WSW 5.8 mph - 0.04 in Rain Rain
4:21 PM 73.4 °F 71.6 °F 94% 29.77 in 1.8 mi Variable 3.5 mph - 0.05 in Rain Rain
4:31 PM 71.6 °F 71.6 °F 100% 29.77 in 0.8 mi Calm Calm - 0.12 in Rain Rain
4:40 PM 71.6 °F 69.8 °F 94% 29.77 in 2.0 mi WNW 9.2 mph - 0.14 in Rain Light Rain
4:43 PM 71.6 °F 69.8 °F 94% 29.77 in 4.0 mi WNW 5.8 mph - 0.15 in Rain Light Rain
4:53 PM 72.0 °F 70.0 °F 93% 29.76 in 4.0 mi WNW 5.8 mph - 0.16 in Rain Light Rain
5:04 PM 71.6 °F 69.8 °F 94% 29.78 in 6.0 mi NW 8.1 mph - 0.00 in Rain Light Rain
5:14 PM 69.8 °F 68.0 °F 94% 29.78 in 5.0 mi NW 11.5 mph - 0.01 in Rain Light Rain
5:22 PM 69.8 °F 66.2 °F 88% 29.78 in 6.0 mi NW 5.8 mph - 0.02 in Rain Light Rain
5:38 PM 69.8 °F 68.0 °F 94% 29.78 in 8.0 mi WNW 4.6 mph - 0.02 in Rain Light Rain
5:46 PM 69.8 °F 68.0 °F 94% 29.78 in 8.0 mi WNW 6.9 mph - 0.03 in Rain Light Rain
5:53 PM 68.0 °F 66.9 °F 96% 29.77 in 7.0 mi NW 11.5 mph - 0.03 in Rain Light Rain
6:12 PM 68.0 °F 66.2 °F 94% 29.78 in 8.0 mi NW 5.8 mph - 0.01 in Rain Light Rain
6:31 PM 68.0 °F 66.2 °F 94% 29.78 in 10.0 mi NNW 3.5 mph - 0.01 in Rain Light Rain
6:51 PM 68.0 °F 66.2 °F 94% 29.78 in 10.0 mi WNW 4.6 mph - 0.01 in   Mostly Cloudy
6:53 PM 66.9 °F 66.0 °F 97% 29.77 in 10.0 mi West 4.6 mph - 0.01 in   Mostly Cloudy
7:01 PM 66.2 °F 66.2 °F 100% 29.78 in 10.0 mi WNW 4.6 mph - N/A   Mostly Cloudy
7:12 PM 66.2 °F 66.2 °F 100% 29.79 in 10.0 mi WNW 5.8 mph - N/A   Mostly Cloudy
7:53 PM 66.9 °F 66.0 °F 97% 29.77 in 10.0 mi NNW 4.6 mph - N/A   Partly Cloudy
8:53 PM 66.9 °F 66.0 °F 97% 29.78 in 10.0 mi Calm Calm - N/A   Overcast
9:01 PM 66.2 °F 64.4 °F 94% 29.80 in 10.0 mi West 3.5 mph - N/A   Overcast
9:53 PM 66.9 °F 64.9 °F 93% 29.79 in 10.0 mi West 3.5 mph - N/A   Overcast
10:53 PM 66.0 °F 64.9 °F 96% 29.79 in 10.0 mi NW 6.9 mph - N/A   Mostly Cloudy
11:38 PM 66.2 °F 64.4 °F 94% 29.80 in 10.0 mi NW 5.8 mph - N/A   Overcast
11:53 PM 66.0 °F 64.9 °F 96% 29.79 in 10.0 mi NW 5.8 mph - N/A   Scattered Clouds